CAPE
0 1 0 0 1 0 0 0 0 0 0 1 0 0 1 0 0 0 0 1 7 7 6 11 5 0 1 3 5 8 11 10 12 13 16 21 23 24
0 0 0 0 0 0 0 0 0 0 0 0 1 1 1 2 1 1 0 0 3 3 2 1 0 1 1 3 8 10 11 16 21 22 26 22 18 26
0 0 0 0 0 0 0 0 0 0 0 2 0 0 1 0 0 0 0 0 0 0 0 0 0 2 3 3 5 12 13 18 19 20 24 28 19 30
0 0 0 0 0 0 0 0 0 0 1 0 0 0 0 0 0 0 0 0 0 0 0 0 0 0 0 4 6 9 10 11 12 11 12 16 26 19
0 0 0 0 0 0 0 0 0 0 0 0 0 0 0 0 0 0 0 0 0 0 0 0 0 0 3 5 4 5 5 6 8 10 9 12 13 17
0 0 0 0 0 0 0 0 0 0 0 0 0 0 0 0 0 0 0 0 0 0 0 0 0 0 0 0 0 0 0 0 1 4 9 12 17 12
0 0 0 1 3 0 0 0 0 0 0 0 0 0 0 0 0 0 0 0 0 0 0 0 0 0 0 0 0 0 0 3 6 9 14 20 7 9
0 0 1 4 0 8 10 9 0 0 0 0 0 0 0 0 0 0 0 0 0 0 0 0 0 0 0 0 0 0 0 3 8 14 19 11 7 12
0 0 0 1 0 0 1 1 0 0 0 0 0 0 0 0 0 0 0 0 0 0 0 0 0 0 0 0 0 0 1 1 3 7 9 8 7 7
0 0 0 0 0 0 0 0 0 0 0 0 0 0 0 0 0 0 0 0 0 0 0 0 0 0 0 0 0 0 0 0 1 2 6 10 11 15
0 0 0 0 1 3 0 0 0 0 0 0 0 0 2 3 1 0 0 0 0 0 0 0 0 0 0 0 0 0 0 0 0 3 5 9 11 11
0 0 0 0 0 0 0 0 0 0 0 0 0 0 0 0 0 0 0 0 0 0 0 0 0 0 0 0 0 0 0 0 0 1 4 6 10 1
0 0 0 0 0 0 0 0 0 0 0 0 0 0 0 0 0 0 0 0 0 0 0 0 0 0 0 0 0 0 0 0 0 0 0 0 3 9
0 0 0 0 0 0 0 0 1 0 0 0 0 0 0 0 0 0 0 0 0 0 0 0 0 0 0 0 0 0 0 0 0 0 0 0 1 4
0 0 0 0 0 0 0 0 0 0 0 0 0 0 0 0 0 0 0 0 0 0 0 0 0 0 0 0 0 0 1 0 0 0 0 0 0 0
0 0 0 0 0 0 0 0 0 0 0 0 0 0 0 0 0 0 0 0 0 0 0 0 0 0 0 0 0 1 1 0 0 0 0 0 0 0
0 0 0 0 0 0 0 0 0 0 0 0 0 0 0 0 0 0 0 0 0 0 0 0 0 0 0 0 0 1 1 1 0 0 0 0 0 0
0 0 0 0 0 0 0 0 0 0 0 0 0 0 0 0 0 0 0 0 0 0 0 0 0 0 0 0 0 0 0 0 0 0 0 0 0 0
0 0 0 0 0 0 0 0 0 0 0 0 0 0 0 0 0 0 0 0 0 0 0 0 0 1 0 0 0 0 0 0 0 0 0 0 2 1
0 0 0 0 0 0 0 0 0 0 0 0 0 0 0 0 0 0 0 0 0 0 0 0 1 0 0 0 0 0 0 0 0 0 0 0 2 5
0 0 0 0 0 0 0 0 0 0 0 0 0 0 0 0 0 0 0 2 5 0 0 0 0 4 0 0 0 0 0 0 0 0 0 1 0 0
0 0 0 0 0 0 0 0 0 0 0 0 0 0 0 0 0 0 0 0 0 0 0 0 1 0 0 1 0 0 0 0 0 0 2 10 0 0
0 0 0 0 0 0 0 0 0 0 0 0 0 0 0 0 0 0 0 0 0 0 0 1 0 0 0 0 4 0 0 0 0 0 0 0 4 9
CIN
0 0 0 0 0 0 0 0 0 0 0 0 0 0 0 0 0 0 0 0 0 0 0 0 0 0 0 0 0 0 0 0 0 0 0 0 0 0
0 0 0 0 0 0 0 0 0 0 0 0 0 0 0 0 0 0 0 0 0 0 0 0 0 0 0 0 0 0 0 0 0 0 0 0 0 0
0 0 0 0 0 0 0 0 0 0 0 0 0 0 0 0 0 0 0 0 0 0 0 0 0 0 0 0 0 0 0 0 0 0 0 0 0 0
0 0 0 0 0 0 0 0 0 0 0 0 0 0 0 0 0 0 0 0 0 0 0 0 0 0 0 0 0 0 0 0 0 0 0 0 0 0
0 0 0 0 0 0 0 0 0 0 0 0 0 0 0 0 0 0 0 0 0 0 0 0 0 0 0 0 0 0 0 0 0 0 0 0 0 0
0 0 0 0 0 0 0 0 0 0 0 0 0 0 0 0 0 0 0 0 0 0 0 0 0 0 0 0 0 0 0 0 0 0 0 0 0 0
0 0 0 0 0 0 0 0 0 0 0 0 0 0 0 0 0 0 0 0 0 0 0 0 0 0 0 0 0 0 0 0 0 0 0 0 0 0
0 0 0 0 0 0 0 0 0 0 0 0 0 0 0 0 0 0 0 0 0 0 0 0 0 0 0 0 0 0 0 0 0 0 0 0 0 0
0 0 0 0 0 0 0 0 0 0 0 0 0 0 0 0 0 0 0 0 0 0 0 0 0 0 0 0 0 0 0 0 0 0 0 0 0 0
0 0 0 0 0 0 0 0 0 0 0 0 0 0 0 0 0 0 0 0 0 0 0 0 0 0 0 0 0 0 0 0 0 0 0 0 0 0
0 0 0 0 0 0 0 0 0 0 0 0 0 0 0 0 -1 0 0 0 0 0 0 0 0 0 0 0 0 0 0 0 0 0 0 0 0 0
0 0 0 0 0 0 0 0 0 0 0 0 0 0 0 0 0 0 0 0 0 0 0 0 0 0 0 0 0 0 0 0 0 0 0 0 0 -1
0 0 0 0 0 0 0 0 0 0 0 0 0 0 0 0 0 0 0 0 0 0 0 0 0 0 0 0 0 0 0 0 0 0 0 0 0 0
0 0 0 0 0 0 0 0 0 0 0 0 0 0 0 0 -1 -1 0 -2 0 0 0 0 0 0 0 0 0 0 0 0 0 0 0 0 0 0
0 0 0 0 0 0 0 0 0 0 0 0 0 0 0 0 0 0 -1 0 0 0 -2 0 0 0 0 0 0 0 -1 0 0 0 0 0 0 0
0 0 0 0 0 0 0 0 0 0 0 0 0 0 0 0 -1 -3 0 0 0 0 0 0 0 0 0 0 0 0 -1 -1 0 -3 0 0 0 0
0 0 0 0 0 0 0 0 0 0 0 0 0 0 0 0 -2 -4 0 0 0 0 0 0 0 -7 0 0 0 -1 -1 -2 -2 0 0 0 -1 -3
0 0 0 0 0 0 0 0 0 0 0 0 0 0 0 0 0 0 0 0 0 0 0 0 0 0 -1 0 0 0 0 0 0 0 0 0 -1 -2
0 0 0 0 0 0 0 0 0 0 0 0 0 0 0 0 0 0 0 0 0 0 0 0 0 0 -1 -1 0 0 0 0 0 -1 0 -1 -1 -2
0 0 0 0 0 0 0 0 0 0 0 0 0 0 0 0 0 0 0 0 0 0 0 0 -2 0 0 0 0 0 0 0 0 0 0 0 -3 0
0 0 0 0 0 0 0 0 0 0 0 0 0 0 0 0 0 0 0 0 0 0 0 0 0 0 -2 0 -1 0 0 0 0 0 0 -1 0 0
0 0 0 0 0 0 0 0 0 0 0 0 0 0 0 0 0 0 0 0 0 0 0 0 -2 0 0 0 0 -1 0 0 0 -1 -1 0 -1 0
0 0 0 0 0 0 0 -2 0 0 0 0 0 0 0 0 0 0 0 0 0 -1 0 -1 -1 -1 0 0 0 -2 -3 0 0 0 0 0 0 0
Wind_Speed
4 3 3 3 3 3 2 2 4 4 6 5 4 3 3 2 4 4 4 6 11 14 16 17 17 14 14 14 15 15 16 16 17 16 16 16 17 17
3 4 4 3 4 3 3 1 1 2 3 2 1 1 2 3 3 3 5 11 15 13 13 13 15 14 14 14 15 16 16 16 17 17 16 17 16 17
5 5 6 4 3 3 3 3 2 2 2 2 1 2 3 4 4 4 3 5 5 11 12 12 13 14 14 14 15 15 15 15 15 16 16 17 18 18
6 6 5 4 5 4 3 4 4 3 2 3 1 1 2 3 2 3 4 5 3 8 10 11 12 14 14 14 14 14 14 14 15 16 16 17 18 19
6 8 7 6 5 4 5 4 3 3 3 2 2 0 1 1 2 3 2 4 3 8 9 10 11 14 14 13 12 13 15 16 16 16 16 17 18 18
8 8 7 7 7 5 5 4 4 4 4 2 1 1 2 2 1 0 2 1 2 3 6 6 8 10 13 14 14 14 15 15 15 16 16 16 17 19
9 8 7 10 11 8 4 3 3 2 1 2 1 2 2 1 1 0 1 1 3 2 1 3 3 4 5 10 12 14 14 15 16 16 17 18 19 19
7 7 7 10 10 10 10 7 3 1 0 2 1 1 2 0 1 1 0 1 2 2 3 3 4 4 4 4 12 15 16 16 17 18 18 18 19 20
6 4 5 4 4 1 2 3 2 1 3 3 2 2 2 1 1 1 1 2 3 4 3 4 2 4 4 5 14 17 16 14 13 14 15 16 18 19
4 4 4 1 2 2 2 2 2 2 2 1 3 3 3 3 4 4 4 3 3 4 3 3 2 4 4 6 15 11 9 12 16 17 19 19 19 20
3 1 3 1 2 6 4 3 2 2 4 3 2 5 6 7 6 3 2 2 3 2 0 1 3 6 4 3 3 8 14 18 18 19 18 19 20 20
1 2 4 3 4 4 3 1 1 2 2 4 4 5 5 5 6 2 3 3 2 3 3 3 2 3 6 2 2 6 4 14 18 18 20 19 18 8
2 1 1 4 5 4 2 1 3 2 3 3 3 3 2 2 2 3 3 3 2 5 4 3 2 3 3 7 2 4 6 6 7 10 16 18 15 13
2 0 3 6 5 4 1 3 4 4 2 2 1 2 1 2 2 2 4 4 4 7 7 4 4 5 7 9 10 5 7 8 6 8 6 12 17 20
1 3 4 5 5 4 3 4 2 2 1 1 1 2 2 3 4 4 4 5 6 6 6 6 6 7 7 8 11 11 12 7 8 7 6 7 8 7
3 4 4 3 3 3 2 3 1 1 2 1 1 2 3 3 5 2 3 4 4 5 6 8 8 8 8 9 9 12 9 8 7 9 8 9 9 7
3 2 2 1 1 2 2 2 2 2 2 2 3 4 5 6 4 3 4 4 5 8 7 4 8 9 9 12 11 11 11 10 10 11 10 11 9 9
1 1 1 1 1 1 2 2 1 4 3 2 3 3 4 4 5 5 3 5 6 8 9 8 7 8 7 8 18 11 10 10 10 10 8 10 11 9
1 1 2 2 1 1 1 1 1 1 1 2 3 4 5 5 8 4 4 4 7 7 8 7 7 6 10 11 7 14 9 10 11 11 10 9 12 12
1 2 3 2 2 2 2 4 3 2 3 4 4 4 4 6 5 5 5 6 7 8 7 5 7 6 8 11 13 14 16 10 9 10 11 10 12 24
2 2 3 2 2 3 3 5 3 4 4 3 4 4 4 4 6 6 7 14 14 8 9 9 8 19 9 9 10 11 9 15 17 14 12 10 11 12
3 3 3 3 3 3 3 4 4 5 5 4 4 4 5 5 7 7 7 8 8 8 10 10 10 8 8 10 13 15 13 11 12 19 21 20 11 8
4 4 3 3 3 3 3 5 6 7 7 6 4 5 5 7 6 7 8 8 8 9 10 10 10 10 11 11 15 13 17 15 11 12 12 18 21 24
Wind_Direction
15 55 81 55 49 27 346 335 231 180 217 197 174 212 144 168 158 137 154 223 244 246 260 279 281 287 288 287 287 291 296 297 291 289 287 284 282 283
33 67 76 88 82 77 90 97 81 153 211 110 162 37 168 134 201 189 220 239 253 269 273 283 291 290 290 293 295 294 290 289 290 290 288 285 288 283
56 69 75 82 87 92 94 96 61 56 135 99 85 144 178 172 185 209 232 248 255 263 280 282 291 287 288 290 291 292 293 293 293 290 290 290 291 294
72 78 79 81 67 51 43 75 95 55 65 98 80 165 204 205 212 202 242 256 253 270 288 290 298 299 296 296 293 290 289 287 287 287 289 288 289 285
75 81 77 78 65 55 49 43 56 73 71 126 99 121 169 179 204 224 242 265 274 283 297 304 304 298 295 291 297 302 302 297 294 290 287 282 281 281
69 69 76 78 87 81 72 54 30 34 42 76 92 212 152 202 191 209 280 40 332 291 294 305 312 311 307 299 305 305 299 293 290 285 281 278 276 277
64 69 82 96 97 94 92 90 80 37 40 66 207 41 28 359 211 23 111 276 280 254 286 302 285 272 271 294 295 296 291 289 288 290 289 286 283 280
83 68 61 54 50 51 57 79 98 125 208 84 2 89 269 353 42 99 301 43 315 288 309 286 257 272 276 268 282 299 303 297 294 296 295 292 285 283
75 78 80 69 68 68 227 197 223 72 128 164 195 221 235 199 125 356 249 194 235 267 296 289 228 273 264 279 294 299 302 304 303 299 297 293 291 287
76 78 90 162 229 239 327 294 280 307 288 153 174 217 224 223 194 186 204 241 267 263 188 267 299 278 284 278 298 314 319 329 325 319 309 298 292 290
88 80 58 102 351 43 49 28 5 4 354 1 254 269 269 263 243 121 288 55 313 264 77 258 298 302 287 285 319 351 332 320 318 312 309 304 295 289
140 36 56 62 18 359 87 63 38 278 336 358 351 338 348 330 344 150 159 161 229 330 246 348 329 354 317 266 268 299 269 296 302 304 305 300 298 288
101 83 335 10 347 341 2 165 229 228 348 351 327 328 341 8 31 61 104 141 216 273 303 350 282 314 226 299 242 264 276 275 283 289 291 298 298 292
82 214 290 315 327 320 2 295 329 11 2 336 335 313 306 301 299 299 313 278 235 246 267 256 261 267 275 287 288 291 290 285 277 281 278 284 288 288
188 294 319 334 335 347 325 308 5 21 342 52 283 275 251 264 281 296 293 263 253 249 262 255 243 264 257 270 282 292 301 300 277 276 271 261 261 254
357 328 299 320 321 289 324 354 338 253 204 216 246 258 290 306 312 297 302 300 297 279 262 253 251 248 269 263 269 283 285 283 282 280 276 274 271 258
8 336 346 350 347 357 5 17 10 5 28 336 323 327 314 313 306 291 281 284 280 296 291 272 253 250 252 263 275 274 284 282 278 278 279 276 273 268
23 312 285 264 237 327 336 328 320 335 325 340 306 282 280 282 283 273 263 271 284 295 293 289 287 291 276 258 243 268 272 276 277 275 267 272 278 279
192 250 251 261 247 260 252 248 309 303 283 284 283 277 276 275 299 290 276 274 283 279 273 276 279 283 300 294 277 264 277 284 285 283 279 275 281 283
196 229 241 244 250 234 262 290 290 277 271 265 264 269 274 276 277 275 271 272 277 278 279 275 281 280 278 287 292 295 275 272 271 279 285 281 269 280
245 252 241 235 238 243 259 282 260 268 272 264 267 263 248 263 276 267 272 291 296 297 289 287 289 291 286 288 279 278 278 254 265 273 280 280 285 290
240 246 253 241 241 238 251 276 262 275 276 264 256 257 268 267 273 277 277 282 281 277 278 281 292 290 279 277 278 286 296 289 278 267 273 266 274 276
241 239 241 243 241 245 253 271 275 283 280 279 260 267 267 273 269 273 276 277 279 283 283 287 289 285 276 273 276 288 292 296 297 297 290 278 271 265